METEOR 3-2

Satellite information

Favourite Embed

Satellite Type and Status

PAYLOADIN ORBIT

Key statistics

Satellite METEOR 3-2 at a glance.

Uptime

13496

Days in orbit

Revolutions

≈ 13.2

Per day

Orbit

LEO

Low Earth Orbit

Inclination

82.5

Latest

Satellite identification and parameters

Extended collection of information and parameters for METEOR 3-2.

Object identification

Identified? True

Debris? False

Object name: METEOR 3-2

International designator: 1988-064A

Object number (NORAD): 19336

Object ID (CCSDS): 19336

Country: COMMONWEALTH OF INDEPENDENT STATES (CIS)

Current information (Y/N): Y

RCS size: LARGE

Orbital parameters

Period: 109.317 minutes

Inclination: 82.5416 deg

SMA: 7573.31 km

Apoapsis: 1207.88 km

Periapsis: 1182.471 km

RAAN: 214.6135 deg

Eccentricy: 0.0016775

Argument of periapsis: 353.2488 deg

Mean anomaly: 180.177 deg

Mean motion: 13.17267977 rev/day

Mean motion (dot): 0.00000085 rev/day2

B* drag term: 0.00018781 1/REarth

Two-line elements (TLE)

Creation date: July 8, 2025, 2:27 a.m.

Reference frame: TEME

Reference center: EARTH

Epoch: July 7, 2025, 7:21 p.m. UTC

TLE line 0: 0 METEOR 3-2

TLE line 1: 1 19336U 88064A 25188.80648465 .00000085 00000-0 18781-3 0 9994

TLE line 2: 2 19336 82.5416 214.6135 0016775 353.2488 180.1770 13.17267977776319

Live tracking on map

Real-time ground track for satellite METEOR 3-2.

In-orbit conjunctions

A list of the most updated potential collisions computed for object METEOR 3-2.

Target Orbit TCA Probability of collision Miss distance Type
CZ-6A DEB SSO 2024-09-19 15:38:06 0.0004933074 147.0 (m) DEBRIS

Associated space launch

Third generation meteorological satellite

METEOR 3-2 was lifted into orbit during the mission ‘Tsiklon-3 | Meteor-3 2’, on board a Tsiklon-3 space rocket.

The launch took place on July 26, 1988, 5:01 a.m. from 32/2.

For more information about the launch, click the button.

Launch to space Tsiklon-3 | Meteor-3 2
Tsiklon-3 | Meteor-3 2

Agency: N/A

Status: Launch Successful

Launch date: July 26, 1988, 5:01 a.m. UTC

Rocket: Tsiklon-3

Launch pad: 32/2

Location: Plesetsk Cosmodrome, Russian Federation

...

Latest news about this satellite

There are no fresh news available about this satellite. Check back as we update our databases every day.


Newsletter sign-up

Weekly statistics, charts and insights to help you stay on top of the space industry.